Weather reports worldwide

Advertisment
Bedford, United Kingdom (3560): temperature & dewpoint: 18.06.2017 23:00:00 - 24.06.2017 23:00:00 (BST)Bedford, United Kingdom (3560): temperature 5cm: 18.06.2017 23:00:00 - 24.06.2017 23:00:00 (BST)Bedford, United Kingdom (3560): temperature -20cm & temperature -100cm: 18.06.2017 23:00:00 - 24.06.2017 23:00:00 (BST)Bedford, United Kingdom (3560): wind speed & gusts: 18.06.2017 23:00:00 - 24.06.2017 23:00:00 (BST)Bedford, United Kingdom (3560): wind direction: 18.06.2017 23:00:00 - 24.06.2017 23:00:00 (BST)Bedford, United Kingdom (3560): reduced air pressure: 18.06.2017 23:00:00 - 24.06.2017 23:00:00 (BST)Bedford, United Kingdom (3560): visibility: 18.06.2017 23:00:00 - 24.06.2017 23:00:00 (BST)Bedford, United Kingdom (3560): precipitation: 18.06.2017 23:00:00 - 24.06.2017 23:00:00 (BST)
Date & Time tt [°C] td [°C] tt 5cm [°C] tt -20cm [°C] tt -100cm [°C] ff [km/h] ff [kn] fx [km/h] fx [kn] dd ppp [hPa] vv [km] rr [mm]
24.06.2017 23:00:00 16,7 12,9 - - - 15 8 - - WSW 1011,5 50 0,0
24.06.2017 22:00:00 18,5 13,4 - - - 16 9 - - W 1010,9 50 0,0
24.06.2017 21:00:00 19,6 13,5 - - - 21 11 - - W 1010,5 50 0,0
24.06.2017 20:00:00 20,5 13,4 - - - 18 10 - - W 1010,5 50 0,0
24.06.2017 19:00:00 21,3 13,4 - - - 22 12 - - W 1010,4 35 0,0
24.06.2017 18:00:00 22,7 13,3 - - - 22 12 - - WSW 1010,4 40 0,0
24.06.2017 17:00:00 22,1 13,8 - - - 18 10 - - WSW 1010,8 50 0,0
24.06.2017 16:00:00 22,4 13,3 - - - 21 11 - - SW 1011,0 50 0,0
24.06.2017 15:00:00 21,8 14,0 - - - 18 10 - - SW 1011,5 50 0,0
24.06.2017 14:00:00 21,3 13,7 - - - 16 9 - - WSW 1012,2 50 0,0
24.06.2017 13:00:00 20,7 13,7 - - - 16 9 - - W 1012,6 50 0,0
24.06.2017 12:00:00 20,0 13,7 - - - 16 9 - - WSW 1012,8 50 0,0
24.06.2017 11:00:00 19,5 13,7 - - - 18 10 - - W 1012,9 40 0,0
24.06.2017 10:00:00 18,5 13,5 - 19,0 15,9 18 10 - - W 1013,0 50 0,0
24.06.2017 09:00:00 17,8 14,1 - - - 16 9 - - W 1013,1 50 0,0
24.06.2017 08:00:00 17,9 14,5 - - - 16 9 - - WSW 1013,1 50 0,0
24.06.2017 07:00:00 16,2 14,6 - - - 9 5 - - SW 1013,0 50 0,0
24.06.2017 06:00:00 16,3 14,2 - - - 13 7 - - SW 1013,0 50 0,0
24.06.2017 05:00:00 16,3 14,1 - - - 16 9 - - WSW 1012,8 50 0,0
24.06.2017 04:00:00 16,4 14,0 - - - 16 9 - - WSW 1012,8 50 0,0
24.06.2017 03:00:00 16,4 13,8 - - - 18 10 - - WSW 1013,2 50 0,0
24.06.2017 02:00:00 16,4 13,6 - - - 21 11 - - SW 1013,5 50 0,0
24.06.2017 01:00:00 16,6 13,5 - - - 21 11 - - WSW 1014,0 50 0,0
24.06.2017 00:00:00 16,9 13,1 - - - 21 11 - - WSW 1014,2 50 0,0
23.06.2017 23:00:00 17,1 13,0 - - - 21 11 - - WSW 1014,3 45 0,0
23.06.2017 22:00:00 17,7 12,7 - - - 24 13 - - WSW 1014,3 45 0,0
23.06.2017 21:00:00 18,0 12,9 - - - 21 11 48 26 WSW 1014,4 50 0,0
23.06.2017 20:00:00 18,3 12,9 - - - 28 15 46 25 WSW 1014,4 40 0,0
23.06.2017 19:00:00 19,0 13,7 - - - 26 14 - - WSW 1014,5 30 0,0
23.06.2017 18:00:00 18,9 13,5 - - - 24 13 - - WSW 1014,9 50 0,0
23.06.2017 17:00:00 18,5 13,3 - - - 26 14 48 26 WSW 1015,1 45 0,0
23.06.2017 16:00:00 18,7 13,2 - - - 28 15 - - WSW 1014,9 40 0,0
23.06.2017 15:00:00 19,2 13,0 - - - 22 12 - - WSW 1015,0 45 0,0
23.06.2017 14:00:00 19,8 13,3 - - - 28 15 - - SW 1014,7 50 0,0
23.06.2017 13:00:00 18,9 12,5 - - - 28 15 - - SW 1014,7 45 0,0
23.06.2017 12:00:00 18,9 12,3 - - - 24 13 - - SW 1014,8 45 0,0
23.06.2017 11:00:00 18,5 11,5 - - - 24 13 - - WSW 1014,7 35 0,0
23.06.2017 10:00:00 17,0 11,2 - 19,7 15,7 26 14 - - WSW 1015,0 45 0,0
23.06.2017 09:00:00 15,7 11,3 - - - 22 12 - - WSW 1014,9 30 0,0
23.06.2017 08:00:00 13,8 10,9 - - - 16 9 - - WSW 1014,9 27 0,0
23.06.2017 07:00:00 12,7 10,5 - - - 21 11 - - WSW 1014,5 23 0,0
23.06.2017 06:00:00 11,9 10,8 - - - 15 8 - - SW 1014,2 17 0,0
23.06.2017 05:00:00 11,8 11,0 - - - 13 7 - - SW 1014,4 21 0,0
23.06.2017 04:00:00 12,4 11,7 - - - 9 5 - - WSW 1014,3 15 0,0
23.06.2017 03:00:00 12,7 11,8 - - - 9 5 - - SW 1014,0 20 0,0
23.06.2017 02:00:00 12,8 11,1 - - - 8 4 - - WSW 1014,3 29 0,0
23.06.2017 01:00:00 13,4 11,4 - - - 9 5 - - WSW 1014,2 45 0,0
23.06.2017 00:00:00 14,6 11,8 - - - 11 6 - - WSW 1014,2 50 0,0
22.06.2017 23:00:00 15,3 12,7 - - - 8 4 - - SW 1014,0 45 0,0
22.06.2017 22:00:00 17,0 13,2 - - - 11 6 - - W 1013,5 50 0,0
22.06.2017 21:00:00 18,7 14,7 - - - 15 8 - - W 1012,9 50 0,0
22.06.2017 20:00:00 19,6 15,4 - - - 15 8 - - W 1012,4 50 0,0
22.06.2017 19:00:00 19,9 15,5 - - - 13 7 - - W 1012,2 30 0,0
22.06.2017 18:00:00 19,0 15,6 - - - 15 8 - - WSW 1012,2 40 0,0
22.06.2017 17:00:00 21,1 15,4 - - - 22 12 - - W 1011,5 25 0,0
22.06.2017 16:00:00 20,4 14,7 - - - 22 12 - - W 1011,3 30 0,0
22.06.2017 15:00:00 19,9 14,6 - - - 24 13 - - WNW 1011,2 4,0 0,0
22.06.2017 14:00:00 18,9 14,1 - - - 22 12 - - W 1011,0 30 0,0
22.06.2017 13:00:00 18,9 13,8 - - - 21 11 - - W 1010,5 40 0,0
22.06.2017 12:00:00 19,3 14,0 - - - 24 13 - - WSW 1010,2 35 0,0
22.06.2017 11:00:00 18,4 14,2 - - - 21 11 - - W 1010,4 29 0,0
22.06.2017 10:00:00 17,3 14,4 - 21,2 15,5 21 11 - - WSW 1010,6 17 0,0
22.06.2017 09:00:00 17,0 14,9 - - - 16 9 - - WSW 1010,3 20 0,8
22.06.2017 08:00:00 18,0 15,4 - - - 24 13 - - WSW 1010,1 13 0,0
22.06.2017 07:00:00 18,2 16,0 - - - 24 13 - - WSW 1009,6 12 0,0
22.06.2017 06:00:00 18,0 16,5 - - - 22 12 - - WSW 1009,3 6 0,0
22.06.2017 05:00:00 19,2 17,9 - - - 15 8 - - WSW 1009,0 8 0,0
22.06.2017 04:00:00 19,6 18,1 - - - 15 8 - - SW 1009,2 9 0,0
22.06.2017 03:00:00 20,1 18,2 - - - 11 6 - - SW 1009,7 11 0,0
22.06.2017 02:00:00 20,8 18,5 - - - 11 6 - - SW 1010,2 14 0,0
22.06.2017 01:00:00 21,0 18,5 - - - 13 7 - - SSW 1010,2 14 0,0
22.06.2017 00:00:00 20,1 18,2 - - - 8 4 - - S 1010,6 9 0,0
21.06.2017 23:00:00 21,6 18,9 - - - 11 6 - - S 1010,8 16 0,0
21.06.2017 22:00:00 21,7 18,8 - - - 11 6 - - SSE 1010,9 17 0,0
21.06.2017 21:00:00 23,5 19,2 - - - 11 6 - - SE 1010,9 21 0,0
21.06.2017 20:00:00 26,1 20,3 - - - 13 7 - - SE 1010,8 30 0,0
21.06.2017 19:00:00 26,7 20,6 - - - 15 8 - - ESE 1011,4 29 0,0
21.06.2017 18:00:00 28,9 20,6 - - - 13 7 - - ESE 1011,7 30 0,0
21.06.2017 17:00:00 29,0 19,9 - - - 13 7 - - SE 1011,8 35 0,0
21.06.2017 16:00:00 29,3 18,6 - - - 15 8 - - SE 1012,4 30 0,0
21.06.2017 15:00:00 29,2 19,1 - - - 13 7 - - SSE 1013,3 30 0,0
21.06.2017 14:00:00 28,6 19,4 - - - 13 7 - - SE 1014,0 30 0,0
21.06.2017 13:00:00 26,6 19,4 - - - 11 6 - - E 1014,8 35 0,0
21.06.2017 12:00:00 24,9 18,9 - - - 11 6 - - ESE 1015,6 8 0,0
21.06.2017 11:00:00 23,0 18,2 - - - 13 7 - - ESE 1015,5 30 0,0
21.06.2017 10:00:00 20,6 17,0 20,6 20,9 15,2 11 6 - - ESE 1016,3 15 0,0
21.06.2017 09:00:00 18,1 15,2 - - - 13 7 - - E 1016,9 30 0,0
21.06.2017 08:00:00 16,0 14,4 - - - 9 5 - - E 1017,4 23 0,0
21.06.2017 07:00:00 13,8 13,1 - - - 9 5 - - NE 1017,9 14 0,0
21.06.2017 06:00:00 12,8 12,4 - - - 8 4 - - NNE 1018,0 14 0,0
21.06.2017 05:00:00 11,9 11,5 - - - 9 5 - - ENE 1017,9 10 0,0
21.06.2017 04:00:00 12,4 11,8 - - - 9 5 - - ENE 1018,1 12 0,0
21.06.2017 03:00:00 13,1 12,5 - - - 8 4 - - NE 1018,5 14 0,0
21.06.2017 02:00:00 13,6 12,9 - - - 11 6 - - E 1018,8 12 0,0
21.06.2017 01:00:00 14,6 13,6 - - - 13 7 - - E 1019,3 16 0,0
21.06.2017 00:00:00 16,0 14,9 - - - 15 8 - - ENE 1019,2 12 0,0
20.06.2017 23:00:00 17,6 15,6 - - - 13 7 - - E 1019,1 21 0,0
20.06.2017 22:00:00 19,3 16,1 - - - 11 6 - - E 1018,9 30 0,0
20.06.2017 21:00:00 21,6 17,1 - - - 16 9 - - E 1018,2 40 0,0
20.06.2017 20:00:00 23,7 18,3 - - - 18 10 - - NE 1017,8 40 0,0
20.06.2017 19:00:00 24,3 19,1 - - - 22 12 - - N 1017,5 30 0,0
20.06.2017 18:00:00 25,3 19,5 - - - 22 12 - - N 1017,6 29 0,0
20.06.2017 17:00:00 26,2 19,6 - - - 21 11 - - NNE 1017,7 35 0,0
20.06.2017 16:00:00 26,2 19,1 - - - 18 10 - - NE 1018,0 23 0,0
20.06.2017 15:00:00 26,5 19,0 - - - 16 9 - - NNE 1018,3 23 0,0
20.06.2017 14:00:00 25,9 18,6 - - - 15 8 - - NNE 1018,6 12 0,0
20.06.2017 13:00:00 25,6 18,1 - - - 11 6 - - NNE 1018,8 18 0,0
20.06.2017 12:00:00 24,3 18,1 - - - 13 7 - - NNE 1019,0 11 0,0
20.06.2017 11:00:00 23,5 17,8 - - - 13 7 - - NE 1019,0 18 0,0
20.06.2017 10:00:00 21,2 18,1 21,6 20,7 14,9 13 7 - - NNE 1018,9 5 0,0
20.06.2017 09:00:00 20,8 18,2 - - - 13 7 - - NE 1018,7 10 0,0
20.06.2017 08:00:00 19,4 17,1 - - - 9 5 - - NNE 1018,4 9 0,0
20.06.2017 07:00:00 18,9 16,6 - - - 5 3 - - NE 1018,2 8 0,0
20.06.2017 06:00:00 17,8 15,7 - - - 8 4 - - NNW 1018,0 9 0,0
20.06.2017 05:00:00 16,7 15,1 - - - 8 4 - - ESE 1017,3 9 0,0
20.06.2017 04:00:00 16,7 14,3 - - - 4 2 - - SSE 1017,5 7 0,0
20.06.2017 03:00:00 17,5 15,0 - - - 9 5 - - S 1017,4 12 0,0
20.06.2017 02:00:00 17,8 15,8 - - - 9 5 - - SE 1017,7 13 0,0
20.06.2017 01:00:00 18,7 15,6 - - - 8 4 - - SSE 1017,8 20 0,0
20.06.2017 00:00:00 19,4 16,1 - - - 2 1 - - ENE 1017,8 24 0,0
19.06.2017 23:00:00 20,1 16,7 - - - 8 4 - - SSE 1017,8 30 0,0
19.06.2017 22:00:00 21,5 16,8 - - - 9 5 - - SSE 1017,6 45 0,0
19.06.2017 21:00:00 24,9 19,1 - - - 8 4 - - SE 1017,2 50 0,0
19.06.2017 20:00:00 27,8 18,1 - - - 2 1 - - E 1016,9 50 0,0
19.06.2017 19:00:00 28,7 17,5 - - - 4 2 - - E 1016,9 50 0,0
19.06.2017 18:00:00 30,0 15,6 - - - 4 2 - - ESE 1016,9 30 0,0
19.06.2017 17:00:00 29,3 16,2 - - - 5 3 - - SE 1017,3 35 0,0
19.06.2017 16:00:00 29,9 15,5 - - - 5 3 - - SE 1017,7 40 0,0
19.06.2017 15:00:00 29,6 16,8 - - - 9 5 - - ESE 1017,9 35 0,0
19.06.2017 14:00:00 28,9 16,6 - - - 8 4 - - E 1018,5 24 0,0
19.06.2017 13:00:00 28,3 18,1 - - - 5 3 - - SE 1019,0 50 0,0
19.06.2017 12:00:00 28,1 18,2 - - - 8 4 - - E 1019,5 40 0,0
19.06.2017 11:00:00 27,4 17,7 - - - 4 2 - - E 1019,6 19 0,0
19.06.2017 10:00:00 26,1 18,4 26,3 19,9 14,7 2 1 - - ENE 1019,9 26 0,0
19.06.2017 09:00:00 23,8 18,2 - - - 8 4 - - S 1020,3 28 0,0
19.06.2017 08:00:00 22,4 18,6 - - - 4 2 - - SSE 1020,4 35 0,0
19.06.2017 07:00:00 19,2 17,4 - - - 8 4 - - S 1020,7 18 0,0
19.06.2017 06:00:00 17,0 15,8 - - - 8 4 - - SSE 1020,8 14 0,0
19.06.2017 05:00:00 17,1 16,0 - - - 8 4 - - S 1020,6 17 0,0
19.06.2017 04:00:00 16,6 15,4 - - - 8 4 - - S 1021,0 13 0,0
19.06.2017 03:00:00 17,3 15,5 - - - 8 4 - - S 1021,1 29 0,0
19.06.2017 02:00:00 18,2 15,6 - - - 8 4 - - S 1021,2 45 0,0
19.06.2017 01:00:00 19,2 15,7 - - - 5 3 - - SSE 1021,4 50 0,0
19.06.2017 00:00:00 20,3 16,3 - - - 9 5 - - S 1021,5 40 0,0
18.06.2017 23:00:00 21,7 17,1 - - - 8 4 - - SE 1021,6 50 0,0

tt = temperature
td = dewpoint
tt 5cm = temperature 5cm
tt -20cm = temperature -20cm
tt -100cm = temperature -100cm
ff = wind speed
fx = gusts
dd = wind direction
ppp = reduced air pressure
vv = visibility
rr = precipitation

Next stations